Zurück zum Katalog

FREGAT DEB

LostUNKNOWN
NORAD 52956·DEBRIS·🇷🇺 Russia

Gestartet Jul 18, 2011 von Baikonur Cosmodrome

Loading…

Nächste Überflüge (nächste 24 Stunden)

TLE

VeraltetSource: Space-Track

Epoche: Sep 11, 2022, 11:34 UTC

1 52956U 11037PK  22254.48213184  .00006115  00000-0  47861-1 0  9995
2 52956  51.5601 278.7828 1798340 173.2228 189.6822 10.15403064 13099

Verfolge FREGAT DEB in Echtzeit mit AllMySat

Download on the App Store